Погода в Богдашкине

Россия / Ульяновская область     54°23′14″N   49°04′45″E
темп.,
°C
ветер,
м/с
пор.,
м/с
влажн.,
%
обл.,
%
осадки,
мм/ч
давл.,
гПа
погр.,
м
14 мая, пт
пт1401:00+17юв512695 0.1 1021214
04:00+16юв4126255 0.1 1021210
07:00+17юв51267100 0.1 1021321
10:00+21ююв7115250 0.3 1021504
13:00+23ю71146100 0.0 1020757
16:00+25ю7114548 0.0 10201127
19:00+22ю47620 0.0 1019174
22:00+18ююв45665 0.0 101955
15 мая, сб
сб1501:00+17ююв477196 0.0 1019104
04:00+16ююв496464 0.0 1019119
07:00+17ююв5106396 0.0 1019176
10:00+23ю584935 0.0 1020313
13:00+25ю710418 0.0 1020633
16:00+27ю7114053 0.0 10191022
19:00+22ю49575 0.0 1018166
22:00+19ююв615515 0.0 1018221
16 мая, вс
вс1601:00+18ю5135214 0.0 1018190
04:00+16ююв5125339 0.0 1018164
07:00+18ююв5126115 0.0 1018202
10:00+23ю695011 0.0 1018365
13:00+26ю79435 0.0 1018762
16:00+27ю6942100 0.0 10171817
19:00+23ю4855100 0.0 1017133
22:00+19юз2255100 0.0 101712
17 мая, пн
пн1701:00+18ююз3353100 0.0 101723
04:00+17ююв2257100 0.0 101811
07:00+19юв236397 0.0 101859
10:00+23юз355098 0.0 1018391
13:00+27ю454295 0.0 1018853
16:00+28ю453932 0.0 10171391
19:00+25ююз33563 0.0 101741
22:00+20ююв34555 0.0 101841
18 мая, вт
вт1801:00+18вюв226015 0.0 101811
04:00+17ююв33615 0.0 101823
07:00+20юв23625 0.0 101791
10:00+25ю354527 0.0 1017448
13:00+28ю453341 0.0 10171317
16:00+28ю583875 0.0 10161789
19:00+24ююв3656100 0.0 1016100
22:00+21ююв3347100 0.0 101620